EW1268 Weather Reports


time (UTC)temp
F
wind
direction
speed
knots
gust
knots
rain 1hr
in
rain 24hr
in
rain mn
in
humidity
%
barometer
mb
20260507063025 67 317 1.7 7.8 0.00 0.01 0.00 87 1013.5
20260507062510 67 27 1.7 10.4 0.00 0.01 0.00 87 1013.3
20260507062010 67 341 1.7 10.4 0.00 0.01 0.00 87 1013.2
20260507061507 67 54 3.5 10.4 0.00 0.01 0.00 87 1013.5
20260507061006 67 319 2.6 8.7 0.00 0.01 0.00 87 1013.5
20260507060506 67 34 1.7 8.7 0.00 0.01 0.00 87 1013.2
20260507060017 67 9 0.9 8.7 0.00 0.01 0.00 87 1013.1
20260507055506 67 13 2.6 8.7 0.00 0.01 0.00 87 1013.0
20260507055011 67 9 1.7 7.8 0.00 0.01 0.00 87 1013.0
20260507054522 67 34 1.7 10.4 0.00 0.01 0.00 87 1013.1
20260507054013 67 349 3.5 10.4 0.00 0.01 0.00 87 1013.2
20260507053504 67 16 3.5 8.7 0.00 0.01 0.00 87 1013.2
20260507053010 67 16 2.6 8.7 0.00 0.01 0.00 87 1013.1
20260507052503 67 93 1.7 7.8 0.00 0.01 0.00 87 1012.9
20260507052008 67 30 1.7 8.7 0.00 0.01 0.00 87 1012.8
20260507051519 68 344 2.6 8.7 0.00 0.01 0.00 87 1012.8
20260507051007 68 29 3.5 8.7 0.00 0.01 0.00 87 1012.7
20260507050514 68 26 2.6 10.4 0.00 0.01 0.00 87 1012.8
20260507050025 68 350 2.6 10.4 0.00 0.01 0.00 87 1012.9
20260507045503 68 19 1.7 7.8 0.00 0.01 0.01 87 1012.8
20260507045003 68 321 2.6 7.8 0.00 0.01 0.01 87 1012.9
20260507044510 68 18 2.6 7.0 0.00 0.01 0.01 87 1012.8
20260507044008 69 316 0.9 7.8 0.00 0.01 0.01 86 1012.7
20260507043507 69 93 2.6 8.7 0.00 0.01 0.01 86 1012.7
20260507043020 69 325 0.9 8.7 0.00 0.01 0.01 86 1012.7
20260507042508 69 342 3.5 10.4 0.00 0.01 0.01 86 1012.6
20260507042010 69 309 3.5 10.4 0.00 0.01 0.01 86 1012.6
20260507041510 69 34 2.6 8.7 0.00 0.01 0.01 86 1012.7
20260507041008 69 325 0.9 8.7 0.00 0.01 0.01 86 1012.7
20260507040506 70 347 2.6 8.7 0.00 0.01 0.01 86 1012.7
20260507040017 70 342 1.7 7.0 0.00 0.01 0.01 85 1012.9
20260507035507 70 93 2.6 10.4 0.00 0.01 0.01 85 1012.9
20260507035011 70 51 1.7 10.4 0.00 0.01 0.01 85 1012.9
20260507034544 70 341 1.7 8.7 0.00 0.01 0.01 85 1012.8
20260507034009 70 323 3.5 8.7 0.00 0.01 0.01 85 1012.7
20260507033507 71 302 3.5 9.6 0.00 0.01 0.01 85 1012.6
20260507033010 71 19 4.3 9.6 0.00 0.01 0.01 85 1012.6
20260507032507 71 349 3.5 8.7 0.00 0.01 0.01 85 1012.4
20260507032007 71 63 2.6 10.4 0.00 0.01 0.01 85 1012.2
20260507031520 71 16 3.5 10.4 0.00 0.01 0.01 86 1012.1
20260507031007 71 30 3.5 11.3 0.00 0.01 0.01 86 1012.1
20260507030511 71 265 1.7 11.3 0.00 0.01 0.01 85 1012.0
20260507030027 71 332 2.6 11.3 0.00 0.01 0.01 85 1011.9
20260507025505 72 38 2.6 8.7 0.00 0.01 0.01 85 1011.9
20260507025004 72 29 2.6 8.7 0.00 0.01 0.01 85 1011.7
20260507024526 72 309 1.7 8.7 0.00 0.01 0.01 86 1011.7
20260507024008 72 291 3.5 9.6 0.00 0.01 0.01 86 1011.7
20260507023512 72 43 2.6 9.6 0.00 0.01 0.01 86 1011.5
20260507023022 72 22 2.6 9.6 0.00 0.01 0.01 85 1011.4
20260507022508 72 321 3.5 9.6 0.00 0.01 0.01 85 1011.2
20260507022015 72 25 2.6 9.6 0.00 0.01 0.01 86 1011.1
20260507021508 72 295 2.6 9.6 0.00 0.01 0.01 85 1011.1
20260507021007 72 334 3.5 9.6 0.00 0.01 0.01 85 1010.9
20260507020507 72 26 2.6 9.6 0.00 0.01 0.01 85 1010.8
20260507020016 72 33 4.3 9.6 0.00 0.01 0.01 85 1010.8
20260507015513 73 15 2.6 7.8 0.00 0.01 0.01 85 1010.9
20260507015008 73 27 2.6 11.3 0.00 0.01 0.01 86 1010.9
20260507014536 73 9 3.5 11.3 0.00 0.01 0.01 86 1010.7
20260507014009 73 298 3.5 8.7 0.00 0.01 0.01 86 1010.6
20260507013504 73 339 1.7 7.8 0.00 0.01 0.01 87 1010.6
20260507013013 73 18 2.6 7.8 0.00 0.01 0.01 86 1010.4
20260507012509 73 28 2.6 8.7 0.00 0.01 0.01 87 1010.4
20260507012008 73 338 2.6 9.6 0.00 0.01 0.01 87 1010.3
20260507011535 74 344 2.6 13.0 0.00 0.01 0.01 87 1010.1
20260507011008 74 9 3.5 13.0 0.00 0.01 0.01 87 1010.1
20260507010510 74 20 3.5 12.2 0.01 0.01 0.01 87 1010.1
20260507010030 74 254 4.3 12.2 0.01 0.01 0.01 87 1010.0
20260507005504 75 88 2.6 8.7 0.01 0.01 0.01 88 1009.9
20260507005011 75 44 1.7 7.0 0.01 0.01 0.01 88 1009.9
20260507004513 75 9 1.7 7.0 0.01 0.01 0.01 88 1009.7
20260507004009 75 9 1.7 4.3 0.01 0.01 0.01 88 1009.5
20260507003509 75 319 1.7 6.1 0.01 0.01 0.01 88 1009.5
20260507003023 76 31 1.7 7.8 0.01 0.01 0.01 88 1009.4
20260507002512 76 288 2.6 7.8 0.01 0.01 0.01 88 1009.4
20260507002011 77 321 0.9 7.0 0.01 0.01 0.01 87 1009.2
20260507001510 77 34 1.7 7.0 0.01 0.01 0.01 86 1009.1
20260507001005 78 316 0.9 9.6 0.01 0.01 0.01 86 1009.0
20260507000508 78 282 1.7 9.6 0.00 0.00 0.00 85 1008.8
20260507000019 81 255 3.5 8.7 0.00 0.00 0.00 84 1008.8
20260506235509 83 9 0.0 5.2 0.00 0.00 0.00 87 1008.6
20260506235009 84 31 0.9 5.2 0.00 0.00 0.00 86 1008.5
20260506234524 85 17 0.9 3.5 0.00 0.00 0.00 85 1008.5
20260506234011 86 34 0.9 3.5 0.00 0.00 0.00 83 1008.5
20260506233507 86 319 0.0 2.6 0.00 0.00 0.00 81 1008.5
20260506233014 86 247 0.0 3.5 0.00 0.00 0.00 81 1008.4
20260506232514 86 9 0.9 3.5 0.00 0.00 0.00 81 1008.3
20260506232008 86 183 0.9 3.5 0.00 0.00 0.00 81 1008.3
20260506231525 86 51 0.0 3.5 0.00 0.00 0.00 80 1008.2
20260506231014 86 236 0.0 3.5 0.00 0.00 0.00 80 1008.0
20260506230509 86 168 0.9 3.5 0.00 0.00 0.00 80 1008.1
20260506230031 87 51 0.0 4.3 0.00 0.00 0.00 80 1008.1
20260506225506 87 153 0.9 4.3 0.00 0.00 0.00 80 1008.1
20260506225006 87 294 0.9 5.2 0.00 0.00 0.00 80 1008.1
20260506224517 87 157 1.7 5.2 0.00 0.00 0.00 79 1008.1
20260506224007 88 61 0.9 5.2 0.00 0.00 0.00 77 1008.1
20260506223509 88 309 1.7 5.2 0.00 0.00 0.00 77 1008.1
20260506223026 89 184 0.9 5.2 0.00 0.00 0.00 77 1008.1
20260506222509 89 194 2.6 5.2 0.00 0.00 0.00 77 1008.1
20260506222015 89 165 1.7 5.2 0.00 0.00 0.00 77 1008.1
20260506221528 89 255 1.7 4.3 0.00 0.00 0.00 77 1008.0
20260506221015 89 186 0.9 4.3 0.00 0.00 0.00 78 1008.0
20260506220510 89 273 1.7 5.2 0.00 0.00 0.00 77 1008.0
20260506220032 90 196 1.7 6.1 0.00 0.00 0.00 78 1007.8
20260506215510 90 267 1.7 6.1 0.00 0.00 0.00 79 1007.8
20260506215010 89 217 2.6 7.8 0.00 0.00 0.00 80 1007.8
20260506214515 88 273 0.9 7.8 0.00 0.00 0.00 81 1008.0
20260506214002 88 166 1.7 7.8 0.00 0.00 0.00 79 1008.0
20260506213506 88 146 1.7 6.1 0.00 0.00 0.00 79 1008.1
20260506213016 87 250 0.9 6.1 0.00 0.00 0.00 80 1008.1
20260506212506 88 259 1.7 7.8 0.00 0.00 0.00 80 1007.9
20260506212010 88 325 3.5 7.8 0.00 0.00 0.00 80 1008.0
20260506211524 88 237 1.7 8.7 0.00 0.00 0.00 80 1008.0
20260506211010 88 186 2.6 8.7 0.00 0.00 0.00 81 1008.1
20260506210507 88 236 1.7 9.6 0.00 0.00 0.00 81 1008.2
20260506210013 88 193 1.7 10.4 0.00 0.00 0.00 80 1008.2
20260506205508 88 173 3.5 10.4 0.00 0.00 0.00 78 1008.3
20260506205006 88 178 4.3 9.6 0.00 0.00 0.00 79 1008.4
20260506204521 88 182 5.2 9.6 0.00 0.00 0.00 80 1008.4
20260506204010 88 165 1.7 7.0 0.00 0.00 0.00 81 1008.4
20260506203517 87 229 1.7 7.0 0.00 0.00 0.00 81 1008.5
20260506203027 87 227 1.7 10.4 0.00 0.00 0.00 81 1008.5
20260506202503 87 159 2.6 10.4 0.00 0.00 0.00 82 1008.6
20260506202007 87 159 4.3 9.6 0.00 0.00 0.00 82 1008.6
20260506201512 86 213 4.3 9.6 0.00 0.00 0.00 82 1008.7
20260506201006 86 167 1.7 10.4 0.00 0.00 0.00 83 1008.7
20260506200509 86 194 3.5 10.4 0.00 0.00 0.00 81 1008.7
20260506200021 87 184 2.6 9.6 0.00 0.00 0.00 80 1008.7
20260506195510 87 157 4.3 8.7 0.00 0.00 0.00 79 1008.7
20260506195010 88 186 3.5 7.8 0.00 0.00 0.00 78 1008.8
20260506194544 88 205 3.5 10.4 0.00 0.00 0.00 79 1008.7
20260506194006 88 137 2.6 10.4 0.00 0.00 0.00 79 1008.8
20260506193505 88 193 3.5 9.6 0.00 0.00 0.00 80 1008.8
20260506193015 88 171 3.5 8.7 0.00 0.00 0.00 80 1008.9
20260506192507 88 142 3.5 8.7 0.00 0.00 0.00 79 1008.9
20260506192013 88 173 1.7 7.0 0.00 0.00 0.00 82 1008.9
20260506191522 87 202 2.6 10.4 0.00 0.00 0.00 83 1009.1
20260506191008 87 171 3.5 10.4 0.00 0.00 0.00 81 1009.1
20260506190505 87 173 2.6 9.6 0.00 0.00 0.00 82 1009.1
20260506190008 87 139 3.5 9.6 0.00 0.00 0.00 81 1009.1
20260506185506 87 178 4.3 9.6 0.00 0.00 0.00 83 1009.2
20260506185011 86 178 2.6 10.4 0.00 0.00 0.00 84 1009.3
20260506184525 86 139 1.7 10.4 0.00 0.00 0.00 83 1009.3
20260506184009 85 202 2.6 6.1 0.00 0.00 0.00 82 1009.4
20260506183511 86 161 1.7 8.7 0.00 0.00 0.00 82 1009.4
20260506183025 86 178 1.7 8.7 0.00 0.00 0.00 82 1009.4
20260506182503 86 161 1.7 7.0 0.00 0.00 0.00 83 1009.5
20260506182005 86 153 0.9 7.0 0.00 0.00 0.00 83 1009.6
20260506181514 86 159 3.5 7.0 0.00 0.00 0.00 84 1009.8
20260506181007 85 170 1.7 4.3 0.00 0.00 0.00 84 1009.8
20260506180507 85 196 1.7 6.1 0.00 0.00 0.00 85 1010.0
20260506180022 85 242 1.7 6.1 0.00 0.00 0.00 84 1010.1
20260506175508 85 51 1.7 4.3 0.00 0.00 0.00 85 1010.2
20260506175010 84 124 0.9 7.0 0.00 0.00 0.00 85 1010.4
20260506174509 84 247 0.9 7.0 0.00 0.00 0.00 85 1010.4
20260506174010 84 157 0.9 4.3 0.00 0.00 0.00 86 1010.5
20260506173505 84 247 1.7 4.3 0.00 0.00 0.00 86 1010.6
20260506173018 83 137 0.9 5.2 0.00 0.00 0.00 86 1010.8
20260506172507 83 161 1.7 5.2 0.00 0.00 0.00 86 1010.7
20260506172008 83 153 1.7 6.1 0.00 0.00 0.00 86 1010.8
20260506171525 83 190 0.9 6.1 0.00 0.00 0.00 85 1010.7
20260506171009 83 157 0.9 5.2 0.00 0.00 0.00 86 1010.9
20260506170507 83 193 0.9 5.2 0.00 0.00 0.00 86 1010.8
20260506170011 83 168 2.6 7.8 0.00 0.00 0.00 86 1010.9
20260506165510 83 165 1.7 7.8 0.00 0.00 0.00 87 1010.8
20260506165013 83 144 3.5 7.0 0.00 0.00 0.00 88 1010.9
20260506164524 82 148 0.9 5.2 0.00 0.00 0.00 88 1010.8
20260506164011 82 178 1.7 6.1 0.00 0.00 0.00 88 1010.7
20260506163510 81 146 2.6 8.7 0.00 0.00 0.00 88 1010.7
20260506163027 81 175 3.5 8.7 0.00 0.00 0.00 87 1010.8
20260506162507 81 155 2.6 10.4 0.00 0.00 0.00 87 1010.6
20260506162010 81 193 2.6 10.4 0.00 0.00 0.00 87 1010.6
20260506161516 81 199 4.3 7.8 0.00 0.00 0.00 87 1010.4
20260506161011 81 198 1.7 7.8 0.00 0.00 0.00 87 1010.4
20260506160507 81 157 2.6 7.8 0.00 0.00 0.00 87 1010.4
20260506160021 81 171 2.6 7.8 0.00 0.00 0.00 87 1010.3
20260506155508 81 171 2.6 6.1 0.00 0.00 0.00 87 1010.3
20260506155009 81 165 1.7 7.8 0.00 0.00 0.00 87 1010.4
20260506154530 81 200 2.6 7.8 0.00 0.00 0.00 88 1010.3
20260506154006 81 163 2.6 8.7 0.00 0.00 0.00 87 1010.3
20260506153510 81 238 2.6 8.7 0.00 0.00 0.00 87 1010.4
20260506153016 81 160 1.7 8.7 0.00 0.00 0.00 88 1010.3
20260506152507 80 205 2.6 5.2 0.00 0.00 0.00 89 1010.2
20260506152011 80 191 0.9 5.2 0.00 0.00 0.00 89 1010.0
20260506151526 80 170 0.9 6.1 0.00 0.00 0.00 89 1010.0
20260506151012 80 148 0.9 6.1 0.00 0.00 0.00 89 1009.8
20260506150511 80 178 1.7 7.0 0.00 0.00 0.00 89 1009.8
20260506150014 79 171 2.6 7.0 0.00 0.00 0.00 90 1009.9
20260506145512 79 146 2.6 6.1 0.00 0.00 0.00 90 1009.8
20260506145010 79 157 1.7 5.2 0.00 0.00 0.00 91 1009.7
20260506144536 79 9 0.9 7.0 0.00 0.00 0.00 91 1009.7
20260506144007 79 168 2.6 7.8 0.00 0.00 0.00 91 1009.6
20260506143510 79 146 1.7 8.7 0.00 0.00 0.00 92 1009.4
20260506143028 79 166 2.6 8.7 0.00 0.00 0.00 92 1009.2
20260506142514 78 187 2.6 9.6 0.00 0.00 0.00 93 1009.2
20260506142008 78 196 2.6 9.6 0.00 0.00 0.00 93 1009.2
20260506141520 78 225 2.6 8.7 0.00 0.00 0.00 94 1009.4
20260506141014 78 165 1.7 6.1 0.00 0.00 0.00 94 1009.4
20260506140508 77 142 1.7 7.8 0.00 0.00 0.00 94 1009.4
20260506140036 77 164 3.5 7.8 0.00 0.00 0.00 94 1009.5
20260506135509 77 137 2.6 7.0 0.00 0.00 0.00 94 1009.5
20260506135014 77 165 3.5 7.0 0.00 0.00 0.00 94 1009.5
20260506134533 77 175 2.6 6.1 0.00 0.00 0.00 95 1009.6
20260506134006 76 200 1.7 5.2 0.00 0.00 0.00 95 1009.6
20260506133509 76 143 0.9 6.1 0.00 0.00 0.00 95 1009.5
20260506133023 76 205 1.7 6.1 0.00 0.00 0.00 95 1009.6
20260506132514 76 143 1.7 6.1 0.00 0.00 0.00 95 1009.6
20260506132012 76 126 0.9 4.3 0.00 0.00 0.00 95 1009.7
20260506131533 76 132 1.7 6.1 0.00 0.00 0.00 95 1009.7
20260506131012 75 178 0.9 6.1 0.00 0.00 0.00 95 1009.7
20260506130510 75 175 1.7 6.1 0.00 0.00 0.00 95 1009.7
20260506130018 75 214 1.7 5.2 0.00 0.00 0.00 95 1009.7
20260506125508 75 170 1.7 5.2 0.00 0.00 0.00 95 1009.8
20260506125010 75 153 1.7 5.2 0.00 0.00 0.00 95 1009.7
20260506124527 75 140 1.7 5.2 0.00 0.00 0.00 95 1009.6
20260506124010 75 221 0.9 3.5 0.00 0.00 0.00 95 1009.6
20260506123503 75 178 0.9 4.3 0.00 0.00 0.00 95 1009.6
20260506123015 75 148 0.9 4.3 0.00 0.00 0.00 95 1009.7
20260506122506 75 93 0.9 4.3 0.00 0.00 0.00 95 1009.5
20260506122007 74 137 0.0 4.3 0.00 0.00 0.00 95 1009.5
20260506121521 74 178 0.9 3.5 0.00 0.00 0.00 95 1009.4
20260506121006 74 193 0.9 3.5 0.00 0.00 0.00 95 1009.4
20260506120507 74 171 0.9 3.5 0.00 0.00 0.00 94 1009.4
20260506120032 74 192 0.9 3.5 0.00 0.00 0.00 94 1009.3
20260506115509 74 221 0.9 2.6 0.00 0.00 0.00 94 1009.3
20260506115003 74 153 0.9 6.1 0.00 0.00 0.00 94 1009.2
20260506114519 74 165 0.9 6.1 0.00 0.00 0.00 94 1009.2
20260506114012 74 161 0.9 4.3 0.00 0.00 0.00 94 1009.2
20260506113507 74 221 0.9 4.3 0.00 0.00 0.00 94 1009.0
20260506113030 74 196 1.7 6.1 0.00 0.00 0.00 94 1009.0
20260506112510 74 221 1.7 6.1 0.00 0.00 0.00 94 1009.0
20260506112009 74 178 2.6 6.1 0.00 0.00 0.00 94 1008.9
20260506111507 74 169 1.7 4.3 0.00 0.00 0.00 94 1008.8
20260506111004 74 168 0.9 4.3 0.00 0.00 0.00 94 1008.7
20260506110511 74 153 0.9 4.3 0.00 0.00 0.00 94 1008.7
20260506110019 74 148 0.9 4.3 0.00 0.00 0.00 94 1008.7
20260506105507 74 190 0.9 4.3 0.00 0.00 0.00 94 1008.6
20260506105008 74 51 0.9 4.3 0.00 0.00 0.00 94 1008.6
20260506104528 74 186 1.7 4.3 0.00 0.00 0.00 94 1008.5
20260506104009 74 196 1.7 4.3 0.00 0.00 0.00 94 1008.5
20260506103503 74 178 1.7 4.3 0.00 0.00 0.00 93 1008.6
20260506103010 74 170 0.9 4.3 0.00 0.00 0.00 93 1008.6
20260506102507 74 148 0.9 4.3 0.00 0.00 0.00 93 1008.6
20260506102007 74 360 1.7 5.2 0.00 0.00 0.00 93 1008.6
20260506101524 74 178 1.7 5.2 0.00 0.00 0.00 93 1008.6
20260506101012 74 190 1.7 5.2 0.00 0.00 0.00 93 1008.5
20260506100514 74 169 1.7 5.2 0.00 0.00 0.00 93 1008.4
20260506100028 74 221 1.7 6.1 0.00 0.00 0.00 93 1008.4
20260506095504 74 159 2.6 6.1 0.00 0.00 0.00 93 1008.4
20260506095007 75 196 2.6 6.1 0.00 0.00 0.00 93 1008.3
20260506094515 75 178 2.6 5.2 0.00 0.00 0.00 93 1008.2
20260506094008 75 146 1.7 5.2 0.00 0.00 0.00 93 1008.3
20260506093511 75 178 2.6 5.2 0.00 0.00 0.00 93 1008.2
20260506093031 75 171 2.6 7.0 0.00 0.00 0.00 93 1008.2
20260506092509 75 175 3.5 7.8 0.00 0.00 0.00 92 1008.2
20260506092014 75 164 3.5 10.4 0.00 0.00 0.00 92 1008.3
20260506091528 75 155 3.5 10.4 0.00 0.00 0.00 93 1008.2
20260506091007 75 182 4.3 9.6 0.00 0.00 0.00 92 1008.2
20260506090513 75 161 2.6 9.6 0.00 0.00 0.00 92 1008.3
20260506090018 75 155 3.5 9.6 0.00 0.00 0.00 92 1008.4
20260506085513 76 171 3.5 6.1 0.00 0.00 0.00 92 1008.4
20260506085006 76 182 2.6 7.0 0.00 0.00 0.00 92 1008.4
20260506084532 76 211 2.6 7.8 0.00 0.00 0.00 92 1008.4
20260506084008 76 182 4.3 7.8 0.00 0.00 0.00 92 1008.3
20260506083508 76 150 2.6 7.8 0.00 0.00 0.00 92 1008.4
20260506083032 76 187 1.7 8.7 0.00 0.00 0.00 92 1008.6
20260506082511 76 193 3.5 8.7 0.00 0.00 0.00 92 1008.5
20260506082007 76 159 2.6 9.6 0.00 0.00 0.00 92 1008.5
20260506081525 76 192 1.7 9.6 0.00 0.00 0.00 92 1008.6
20260506081011 76 167 3.5 9.6 0.00 0.00 0.00 92 1008.6
20260506080509 76 171 2.6 6.1 0.00 0.00 0.00 92 1008.5
20260506073507 76 188 3.5 10.4 0.00 0.00 0.00 92 1008.9
20260506073024 76 166 3.5 7.8 0.00 0.00 0.00 92 1008.8
20260506072509 76 165 3.5 8.7 0.00 0.00 0.00 92 1008.9
20260506072016 76 183 1.7 8.7 0.00 0.00 0.00 92 1008.9
20260506071527 76 194 1.7 7.8 0.00 0.00 0.00 92 1008.9
20260506071004 76 157 3.5 7.8 0.00 0.00 0.00 92 1008.9
20260506070510 76 194 2.6 6.1 0.00 0.00 0.00 92 1009.1